Location: Austin, TX
(30.3000°N, 97.7500°W)
Time: 11:48:24
(UTC-05:00)

Daily predictions for brighter satellites

Satellite Brightness Start Highest point End
(mag) Time Altitude Azimuth Time Altitude Azimuth Time Altitude Azimuth
ATLAS CENTAUR Rocket 3.8 19:57:57 10° W 20:03:15 79° S 20:33:56 10° E
Cosmos 1743 Rocket 3.7 21:01:41 10° S 21:06:04 58° E 21:10:27 10° NNE
Cosmos 2221 3.1 21:02:20 10° NNW 21:06:33 61° W 21:10:47 10° S
Meteor 1-21 Rocket 4.4 21:01:28 10° SSE 21:06:46 49° E 21:12:03 10° NNE
Cosmos 1500 Rocket 3.9 21:07:38 10° SSE 21:11:45 43° E 21:15:54 10° NNE
S3M 4.1 21:13:06 10° N 21:19:05 55° E 21:25:05 10° SSE
Cosmos 2228 Rocket 3.2 21:14:38 10° N 21:19:06 64° E 21:23:35 10° SSE
Cosmos 1655 Rocket 4.5 21:14:24 10° SSW 21:20:33 66° W 21:26:44 10° N
Envisat 4.3 21:19:28 11° ESE 21:23:17 24° ENE 21:27:17 10° NNE
ERS-1 Rocket 3.5 21:19:31 10° SE 21:24:14 42° ENE 21:28:58 10° N
Cosmos 2219 3.8 21:19:41 10° SSE 21:24:51 35° ESE 21:30:01 10° NE
Resurs 01 Rocket 4.2 21:22:49 10° SW 21:26:01 20° W 21:29:16 10° NW
Delta 2 Rocket 4.2 21:23:25 10° W 21:27:02 41° N 21:30:20 10° ENE
Cosmos 1441 Rocket 3.2 21:25:14 10° S 21:29:01 87° W 21:32:47 10° N
Sakura Rocket 4.3 21:27:41 10° SSW 21:30:36 17° SSE 21:31:50 15° SE
BREEZE M DEB (TANK) 1.5 21:31:08 10° NW 21:33:03 68° NE 21:35:24 17° ESE
deb Chang Zheng 4 3.6 21:30:07 10° NNE 21:34:24 59° ESE 21:38:40 10° S
Cosmos 2151 3.6 21:34:56 13° SSE 21:38:15 35° E 21:42:06 10° NNE
Cosmos 2322 Rocket 2.3 21:34:38 10° NNW 21:40:15 79° WSW 21:45:45 10° SSE
NOSS 3-1 (C) 3.4 21:36:34 10° S 21:42:03 51° ESE 21:47:58 10° NE
FENGYUN 3A 4.3 21:39:02 10° S 21:44:19 55° W 21:49:38 10° NNW
USA 186 3.3 21:44:04 10° SSW 21:45:51 21° W 21:47:39 10° NW
Cosmos 1515 Rocket 3.5 21:41:33 10° N 21:46:00 77° E 21:49:43 14° S
Cosmos 1980 Rocket 4.4 21:43:55 10° NW 21:48:10 22° W 21:52:25 10° SSW
Cosmos 2360 Rocket 2.8 21:43:51 10° N 21:49:07 39° ENE 21:52:21 21° ESE
Nimbus 7 Rocket 4.3 21:43:44 10° NNE 21:49:34 68° ESE 21:55:23 10° S
SL-16 R/B 2.5 21:46:11 10° NNW 21:51:49 66° WSW 21:56:58 12° S
GPS 2-04 Rocket1 3.7 21:49:11 10° W 21:53:15 38° SSW 21:55:23 23° SSE
Cosmos 2058 3.7 21:52:03 25° SE 21:53:22 30° E 21:56:58 10° NNE
DELTA 2 R/B (1) 4.4 21:48:17 10° NW 21:53:34 43° NNE 21:58:07 14° E
Meteor 2-20 Rocket 4.4 21:50:03 10° S 21:56:12 79° E 22:02:21 10° N
OAO 2 Rocket 3.3 21:51:48 10° WSW 21:57:07 82° SSE 22:02:28 10° ENE
Cosmos 1908 3.2 21:53:20 10° N 21:57:13 64° E 21:59:14 26° SSE
Cosmos 1674 2.9 21:55:39 10° SSW 21:59:26 72° W 22:03:17 10° N
H-2A R/B 0.5 21:57:25 10° WSW 22:00:03 43° SSW 22:00:03 43° SSW
Cosmos 1151 Rocket 3.0 21:58:32 10° N 22:02:49 66° E 22:05:01 28° SSE
Cosmos 405 2.9 22:00:56 10° N 22:04:33 70° E 22:05:51 36° SSE
ALOS 4.2 22:00:52 10° SSW 22:04:45 26° W 22:08:39 10° NW
Cosmos 2266 Rocket 4.1 22:00:27 10° S 22:06:46 79° W 22:13:01 10° N
Cosmos 1805 Rocket 3.8 22:06:22 31° SSE 22:08:07 48° E 22:12:23 10° NNE
H-2A R/B 4.2 22:08:02 11° ENE 22:09:13 11° ENE 22:10:51 10° NE
OTV 4 0.7 22:07:09 10° SW 22:09:38 50° SSW 22:09:38 50° SSW
Cosmos 2227 Rocket 3.6 22:11:30 20° E 22:11:30 20° E 22:14:46 10° NE
YAOGAN 6 3.7 22:12:45 29° ENE 22:12:49 29° ENE 22:15:59 10° NNE
Tiangong 1 3.1 22:10:05 10° W 22:12:50 28° NNW 22:15:34 10° NE
CZ-4B R/B 3.7 22:09:41 10° NNE 22:14:47 51° E 22:17:02 30° SSE
Cosmos 1680 Rocket 3.5 22:12:13 10° N 22:17:26 65° ENE 22:19:32 36° SE
Cosmos 1300 3.8 22:14:43 10° NNE 22:17:52 29° ENE 22:17:52 29° ENE
Cosmos 2315 Rocket 4.1 22:13:02 10° N 22:19:07 58° E 22:21:58 32° SSE
UNK 4.5 22:13:05 10° NNE 22:19:20 78° ESE 22:25:13 12° S
SPOT 1/Viking Rocket 4.2 22:19:48 32° ESE 22:21:08 37° ENE 22:25:51 10° N
Cosmos 923 Rocket 4.0 22:16:48 10° NNW 22:22:00 83° WSW 22:24:27 32° S
Hubble Space Telescope 2.2 22:18:25 10° SW 22:20:32 23° SSW 22:20:32 23° SSW
Cosmos 1939 Rocket 3.4 22:21:30 26° SSW 22:23:25 52° W 22:27:14 10° NNW
Cosmos 1898 Rocket 3.4 22:21:55 29° S 22:24:25 61° ESE 22:29:33 10° NNE
H-2A R/B 2.8 22:22:16 23° S 22:24:54 54° W 22:29:21 10° NNW
Cosmos 858 Rocket 4.4 22:27:45 35° S 22:29:48 62° ESE 22:34:56 10° NNE
Cosmos 2333 Rocket 4.1 22:26:49 10° NNE 22:29:58 15° ENE 22:31:18 14° ENE
Cosmos 1244 Rocket 4.4 22:26:44 25° S 22:30:39 76° E 22:36:56 10° N
Cosmos 1666 Rocket 3.5 22:29:56 54° SE 22:30:39 64° E 22:35:01 10° NNE
Cosmos 1437 Rocket 4.4 22:27:51 10° NNW 22:31:14 30° W 22:33:26 18° SW
Cosmos 2150 Rocket 4.0 22:28:34 25° S 22:31:49 76° ESE 22:37:17 10° NNE
PSLV R/B 3.4 22:33:00 66° NW 22:33:00 66° NW 22:35:45 10° NNW
Cosmos 1707 Rocket 3.8 22:28:30 10° N 22:32:45 49° E 22:32:56 49° E
SPOT 5 2.7 22:32:35 43° S 22:34:04 78° WSW 22:38:48 10° NNW
MetOp-A 4.0 22:33:18 41° SSE 22:35:13 82° ENE 22:40:35 10° N
Cosmos 2297 Rocket 3.7 22:39:29 21° ENE 22:39:29 21° ENE 22:42:10 10° NE
Centaur D-1A AC-32 4.2 22:32:43 10° SW 22:37:47 22° SSW 22:37:47 22° SSW
ARGOS 3.4 22:41:02 45° ESE 22:42:01 52° ENE 22:47:15 10° N
COSMOS 2428 2.9 22:36:36 10° N 22:42:09 54° ENE 22:43:18 46° ESE
NOSS 3-1 (A) 3.7 22:40:18 10° SW 22:46:00 64° WNW 22:52:13 10° NNE
SL-08 R/B 4.5 22:44:56 46° SE 22:46:33 61° E 22:52:42 10° NNE
Cosmos 304 Rocket 4.2 22:41:58 10° NNW 22:46:40 54° WSW 22:47:58 41° SSW
Cosmos 1745 Rocket 4.1 22:47:13 47° SE 22:48:18 52° E 22:54:17 10° NNE
Cosmos 2219 Rocket 3.3 22:45:15 10° N 22:50:04 29° ENE 22:50:35 28° ENE
Cosmos 1726 2.9 22:55:13 10° N 22:58:06 50° N 22:58:06 50° N
Cosmos 2237 4.1 22:58:00 10° NNW 23:03:45 89° WSW 23:04:31 68° SSE
Landsat 7 4.3 23:05:56 48° NE 23:05:56 48° NE 23:10:02 10° N
ATLAS 2AS CENTAUR R/B 2.8 23:05:37 45° S 23:07:58 67° ESE 23:15:47 10° NE
USA 32 3.9 23:04:27 10° N 23:09:42 77° E 23:09:42 77° E
Cosmos 292 Rocket 4.3 23:05:19 10° N 23:09:18 49° NE 23:09:18 49° NE
Cosmos 1386 Rocket 4.4 23:12:52 60° E 23:12:52 60° E 23:18:44 10° NNE
Cosmos 1703 4.4 23:16:40 42° NNW 23:16:40 42° NNW 23:19:27 10° N
Cosmos 1271 Rocket 4.0 23:12:55 10° N 23:15:19 37° N 23:15:19 37° N
Cosmos 2082 3.6 23:19:48 82° SSW 23:20:04 90° W 23:25:49 10° NNE
Terra 2.6 23:22:18 43° NE 23:22:18 43° NE 23:25:54 10° N
Meteor 1-4 Rocket 4.3 23:17:43 10° NNW 23:19:51 32° NNW 23:19:51 32° NNW
Cosmos 2237 Rocket 3.1 23:16:35 10° N 23:21:31 35° ENE 23:21:31 35° ENE
Cosmos 2333 4.1 23:16:18 10° NNW 23:22:03 85° WSW 23:22:12 83° SSW
Cosmos 1937 Rocket 4.3 23:21:29 35° WSW 23:23:12 47° WNW 23:28:14 10° N
Meteor 2-10 4.1 23:18:29 10° N 23:24:07 79° ENE 23:24:07 79° ENE
Cosmos 2242 Rocket 4.2 23:20:33 10° NNW 23:24:15 55° NW 23:24:15 55° NW
ATLAS 3B R/B 4.2 23:24:28 10° N 23:29:34 21° NE 23:31:15 19° ENE
Cosmos 2360 Rocket 4.0 23:28:39 10° NW 23:32:45 21° W 23:34:08 19° WSW
Cosmos 1626 4.4 23:35:44 23° N 23:35:44 23° N 23:37:14 10° N
Cosmos 990 Rocket 4.5 23:33:44 53° W 23:33:58 54° WNW 23:39:00 10° N
DELTA 2 R/B (1) 4.2 23:34:42 10° WNW 23:38:52 49° W 23:38:52 49° W
OAO 2 Rocket 4.0 23:37:00 10° W 23:42:13 53° N 23:42:20 53° N
H-2A R/B 2.5 23:48:40 61° NW 23:48:40 61° NW 23:53:18 10° NNW
COSMOS 2455 4.1 23:48:27 10° N 23:53:21 30° NE 23:53:21 30° NE
Cosmos 2227 Rocket 3.2 23:53:15 36° W 23:54:25 41° WNW 23:59:44 10° N
